Regional Weather Roundup
Issued by NWS

Home | Current Version | Previous Version | Graphics & Text | Print | Product List | Glossary On
Versions: 1 2 3 4 5 6 7 8 9 10 11 12 13 14 15 16 17 18 19 20 21 22 23 24 25 26 27 28 29 30 31 32 33 34 35 36 37 38 39 40 41 42 43 44 45 46 47 48 49 50
000
ASUS43 KMKX 240211
RWRWI

WISCONSIN REGIONAL WEATHER ROUNDUP
NATIONAL WEATHER SERVICE MILWAUKEE/SULLIVAN WI
800 PM CST THU FEB 23 2017

NOTE: "FAIR" INDICATES FEW OR NO CLOUDS BELOW 12,000 FEET WITH NO
SIGNIFICANT WEATHER AND/OR OBSTRUCTIONS TO VISIBILITY.

WIZ001-002-006>008-014>016-023>028-240300-
NORTHWEST WISCONSIN

CITY           SKY/WX    TMP DP  RH WIND       PRES   REMARKS
SUPERIOR ARPT  CLOUDY    28  22  79 NW3       30.02R
ASHLAND        CLOUDY    28  23  81 W5        29.99R WCI  23
HAYWARD        CLOUDY    28  21  75 N7        29.95F WCI  21
SIREN          CLOUDY    29  23  77 NE9       29.96F WCI  20
CUMBERLAND     CLOUDY    28  21  74 N9G17     29.93S WCI  20
RICE LAKE      CLOUDY    30  24  79 N16       29.94S WCI  19
CHETEK         CLOUDY    31  26  78 N6        29.92S WCI  26
LADYSMITH      CLOUDY    32  26  78 NE9       29.93F WCI  24
EAU CLAIRE     CLOUDY    35  25  66 N10       29.89S WCI  27
MENOMONIE      CLOUDY    35  26  70 N7        29.91S WCI  29
NEW RICHMOND   MOCLDY    30  23  75 N12       29.90F WCI  21
OSCEOLA        CLOUDY    30  24  77 N12       29.94F WCI  21
$$

WIZ003>005-009-010-017-018-240300-
NORTH CENTRAL WISCONSIN

CITY           SKY/WX    TMP DP  RH WIND       PRES   REMARKS
MANITOWISH WTR CLOUDY    26  26  97 N6        29.92F WCI  20
ARBOR VITAE    CLOUDY    29  26  86 N8          N/A  WCI  22
WOODRUFF       CLOUDY    29  26  86 N8          N/A  WCI  22
RHINELANDER    CLOUDY    31  25  78 N6        29.91R WCI  25
EAGLE RIVER    CLOUDY    28  23  80 N7        29.91S WCI  21
LAND O LAKES   CLOUDY    28  25  88 NW6       29.93R WCI  22
PHILLIPS       CLOUDY    29  25  83 N12       29.91S WCI  20
TOMAHAWK       CLOUDY    31  24  77 N6        29.91S WCI  25
MEDFORD        CLOUDY    32  25  75 N9        29.89R WCI  25
MERRILL        NOT AVBL
$$

WIZ029-030-035-036-043>047-240300-
CENTRAL WISCONSIN

CITY           SKY/WX    TMP DP  RH WIND       PRES   REMARKS
WAUSAU         CLOUDY    37  24  59 NE7       29.86S WCI  32
MOSINEE        CLOUDY    37  25  60 N10       29.88R WCI  30
MARSHFIELD     CLOUDY    38  25  59 NE9       29.86R WCI  31
STEVENS POINT  CLOUDY    37  24  59 N7        29.87R WCI  31
WAUPACA        CLOUDY    40  28  64 NE6       29.86F
WAUTOMA        CLOUDY    38  30  73 E8        29.84F WCI  32
WISC RAPIDS    CLOUDY    40  25  55 NE9       29.86R WCI  34
CAMP DOUGLAS   CLOUDY    41  30  65 E7        29.83R
$$

WIZ011>013-019>022-031-037>040-048>050-240300-
NORTHEAST WISCONSIN

CITY           SKY/WX    TMP DP  RH WIND       PRES   REMARKS
ANTIGO         CLOUDY    33  26  76 N8        29.88R WCI  26
SHAWANO        CLOUDY    36  28  72 E7        29.91R WCI  30
OCONTO         CLOUDY    34  26  73 E7        29.92R WCI  28
STURGEON BAY   CLOUDY    35  25  66 NE8G17    29.91F WCI  29
GREEN BAY      CLOUDY    36  29  75 NE9       29.90R WCI  29
MANITOWOC      LGT RAIN  36  29  75 NE9       29.88F WCI  29
APPLETON       CLOUDY    36  27  69 E10       29.87R WCI  28
CLINTONVILLE   CLOUDY    36  27  69 E8        29.89R WCI  29
OSHKOSH        CLOUDY    35  28  75 NE12      29.85F WCI  27
$$

WIZ032>034-041-042-053>061-240300-
SOUTHWEST WISCONSIN

CITY           SKY/WX    TMP DP  RH WIND       PRES   REMARKS
LA CROSSE      CLOUDY    43  28  55 N13G21    29.82F
SPARTA         CLOUDY    40  29  65 N10       29.85R WCI  34
VIROQUA        CLOUDY    37  32  80 NE14G22   29.79S WCI  29
BOSCOBEL       LGT RAIN  39  38  96 NE9G18    29.78F WCI  33
PRAIRIE DU CHI CLOUDY    38  37  94 NE9       29.76S WCI  32
PLATTEVILLE    CLOUDY    39  38  99 NE15      29.72F WCI  30
$$

WIZ056-057-062-063-064-067-068-240300-
SOUTH CENTRAL WISCONSIN

CITY           SKY/WX    TMP DP  RH WIND       PRES   REMARKS
REEDSBURG      DRIZZLE   37  33  84 E6        29.83R WCI  32
BARABOO/DELLS  RAIN      36  32  84 NE8       29.82R WCI  30
LONE ROCK      LGT RAIN  37  33  85 NE14      29.80F WCI  28
MINERAL POINT  LGT RAIN  37  37 100 NE14      29.76S WCI  29
MADISON        FLURRIES  34  32  92 NE9       29.82R WCI  27
MIDDLETON      CLOUDY    36  35  96 E10G16    29.82R WCI  28
WATERTOWN      DRIZZLE   33  33  97 NE13G21   29.79F WCI  24
MONROE         LGT RAIN  34  34 100 NE18      29.76F WCI  23
JANESVILLE     NOT AVBL
$$

WIZ051-052-058>065-066-070>072-240300-
SOUTHEAST WISCONSIN

CITY           SKY/WX    TMP DP  RH WIND       PRES   REMARKS
MILWAUKEE      LGT RAIN  37  32  82 NE17G26   29.81R WCI  27
WAUKESHA       DRIZZLE   32  30  93 NE15G21   29.79F WCI  22
MILWAUKEE/TIMM LGT RAIN  34  30  86 NE15G23   29.81F WCI  24
RACINE         LGT RAIN  36  32  85 NE16G24   29.82R WCI  26
KENOSHA        CLOUDY    36  33  89 NE13G23   29.79R WCI  27
FOND DU LAC    CLOUDY    36  27  69 NE13      29.85F WCI  27
SHEBOYGAN      CLOUDY    35  30  82 NE15      29.85F WCI  25
WEST BEND      RAIN      32  32 100 NE12      29.81F WCI  23
JUNEAU         LGT RAIN  33  30  90 NE16G22   29.82F WCI  22
$$

LSZ147-162-240300-
LAKE SUPERIOR

STATION/POSITION TIME  TEMP    WIND        PRES    WAVE
                       AIR SEA DIR/SP/G            HT/PER
                 (UTC) (F)     (DEG/KT/KT) (MB)    (FT/S)
DEVILS ISLAND    0100   32     340/ 17/ 20 1015.4R
PORT WING        0030   32     330/ 12/ 14 1015.2R
SAXON HARBOR     0100   31     210/  4/ 16 1015.2
$$

LMZ867-665-643>646-240300-
LAKE MICHIGAN

STATION/POSITION TIME  TEMP    WIND        PRES    WAVE
                       AIR SEA DIR/SP/G            HT/PER
                 (UTC) (F)     (DEG/KT/KT) (MB)    (FT/S)
CHAMBERS ISLAND  0030   34      40/ 10/ 15 1013.2R
NORTHPORT PIER   0040   34      30/  4/  6 1013.5R
SISTER BAY       0105   34      CALM  /  2   N/A
KEWAUNEE LAKESHO 0142   36      50/ 12/ 17 1011.7F
SHEBOYGAN LAKESH 0100   36      40/ 20/ 22 1011.6F
PORT WASHINGTON  0100   36      40/ 17/ 22 1012.2
MILWAUKEE LAKESH 0150   36      30/ 23/ 26   N/A
KENOSHA   LAKESH 0100   36      30/ 23/ 27 1008.5
$$

TC  - TEMPERATURE IN CELSIUS
VSB - VISIBILITY IN STATUTE MILES
WCI - WIND CHILL INDEX
HX  - HEAT INDEX





USA.gov is the U.S. government's official web portal to all federal, state and local government web resources and services.